Weather History for Corning, AR

Change the Weather History Date:

Monday, January 6, 2014

  Actual Average (KARG) Record (KARG)
Temperature  
Mean Temperature 10 °F -  
Max Temperature 14 °F 43 °F 66 °F (2008)
Min Temperature 5 °F 29 °F 6 °F (2014)
Degree Days  
Heating Degree Days 56    
Moisture  
Dew Point -6 °F    
Average Humidity 53    
Maximum Humidity 61    
Minimum Humidity 44    
Precipitation  
Precipitation 0.00 in - - ()
Sea Level Pressure  
Sea Level Pressure 30.55 in    
Wind  
Wind Speed 18 mph (WNW)    
Max Wind Speed 28 mph    
Max Gust Speed 34 mph    
Visibility 10 miles    
Events      
Averages and records for this station are not official NWS values.
T = Trace of Precipitation, MM = Missing Value Source: NWS Daily Summary

Daily Weather History Graph

Daily Weather History Graph

Search for Another Location

Airport:

Trip Planner

Search our weather history database for the weather conditions in past years. The results will help you decide how hot, cold, wet, or windy it might be!

Date:

Astronomy

Jan. 06, 2014 Rise Set
Actual Time 7:14 AM CST 5:02 PM CST
Civil Twilight 6:46 AM CST 5:30 PM CST
Nautical Twilight 6:14 AM CST 6:03 PM CST
Astronomical Twilight 5:43 AM CST 6:34 PM CST
Moon 10:41 AM CST (1/6) 11:24 PM CST (1/6)
Length of Visible Light 10h 44m
Length of Day
9h 47m
Waxing Crescent, 35% of the Moon is Illuminated
Jan 6
Waxing Crescent
Jan 7
First Quarter
Jan 15
Full
Jan 23
Last Quarter
Jan 30
New

Hourly Weather History & Observations

Time (CST) Temp. Windchill Dew Point Humidity Pressure Visibility Wind Dir Wind Speed Gust Speed Precip Events Conditions
12:15 AM 14.0 °F -4.3 °F -2.2 °F 49% 30.39 in 10.0 mi NW 21.9 mph 26.5 mph N/A   Scattered Clouds
12:35 AM 12.2 °F -8.6 °F -2.2 °F 53% 30.39 in 10.0 mi NW 27.6 mph 34.5 mph N/A   Mostly Cloudy
12:55 AM 12.2 °F -7.5 °F -2.2 °F 53% 30.41 in 10.0 mi NNW 24.2 mph 32.2 mph N/A   Partly Cloudy
1:15 AM 10.4 °F -9.5 °F -2.2 °F 57% 30.41 in 10.0 mi NNW 23.0 mph 28.8 mph N/A   Partly Cloudy
1:35 AM 10.4 °F -9.1 °F -2.2 °F 57% 30.42 in 10.0 mi NNW 21.9 mph 29.9 mph N/A   Clear
1:55 AM 10.4 °F -9.1 °F -4.0 °F 52% 30.44 in 10.0 mi NW 21.9 mph 29.9 mph N/A   Clear
2:15 AM 10.4 °F -9.5 °F -4.0 °F 52% 30.44 in 10.0 mi NW 23.0 mph 31.1 mph N/A   Clear
2:35 AM 10.4 °F -9.5 °F -5.8 °F 48% 30.45 in 10.0 mi NNW 23.0 mph 28.8 mph N/A   Clear
3:15 AM 8.6 °F -7.7 °F -5.8 °F 52% 30.48 in 10.0 mi NNW 13.8 mph 25.3 mph N/A   Clear
3:35 AM 8.6 °F -8.3 °F -5.8 °F 52% 30.49 in 10.0 mi NW 15.0 mph 25.3 mph N/A   Clear
3:55 AM 8.6 °F -9.5 °F -5.8 °F 52% 30.49 in 10.0 mi NW 17.3 mph 24.2 mph N/A   Clear
4:15 AM 8.6 °F -11.0 °F -4.0 °F 57% 30.48 in 10.0 mi NW 20.7 mph 29.9 mph N/A   Clear
4:35 AM 8.6 °F -8.9 °F -7.6 °F 48% 30.49 in 10.0 mi NNW 16.1 mph 25.3 mph N/A   Clear
4:55 AM 6.8 °F -10.7 °F -7.6 °F 52% 30.50 in 10.0 mi NW 15.0 mph 23.0 mph N/A   Clear
5:15 AM 6.8 °F -9.3 °F -7.6 °F 52% 30.50 in 10.0 mi NW 12.7 mph 26.5 mph N/A   Clear
5:35 AM 6.8 °F -11.3 °F -7.6 °F 52% 30.51 in 10.0 mi NW 16.1 mph 24.2 mph N/A   Clear
5:55 AM 6.8 °F -8.6 °F -7.6 °F 52% 30.51 in 10.0 mi NW 11.5 mph 20.7 mph N/A   Clear
6:15 AM 6.8 °F -13.8 °F -7.6 °F 52% 30.52 in 10.0 mi NW 21.9 mph 27.6 mph N/A   Clear
6:35 AM 6.8 °F -10.7 °F -7.6 °F 52% 30.53 in 10.0 mi NW 15.0 mph 25.3 mph N/A   Clear
6:55 AM 5.0 °F -10.0 °F -7.6 °F 56% 30.53 in 10.0 mi NW 10.4 mph - N/A   Clear
7:15 AM 5.0 °F -14.7 °F -5.8 °F 61% 30.55 in 10.0 mi NW 18.4 mph 23.0 mph N/A   Clear
7:35 AM 5.0 °F -14.7 °F -7.6 °F 56% 30.55 in 10.0 mi NW 18.4 mph 24.2 mph N/A   Clear
7:55 AM 5.0 °F -14.7 °F -7.6 °F 56% 30.56 in 10.0 mi NW 18.4 mph 27.6 mph N/A   Clear
8:15 AM 5.0 °F -14.7 °F -7.6 °F 56% 30.57 in 10.0 mi NW 18.4 mph 27.6 mph N/A   Clear
8:35 AM 5.0 °F -16.7 °F -7.6 °F 56% 30.58 in 10.0 mi NW 23.0 mph 31.1 mph N/A   Clear
8:55 AM 5.0 °F -16.2 °F -7.6 °F 56% 30.59 in 10.0 mi NW 21.9 mph 28.8 mph N/A   Clear
9:15 AM 5.0 °F -15.2 °F -7.6 °F 56% 30.59 in 10.0 mi NW 19.6 mph 25.3 mph N/A   Clear
9:35 AM 5.0 °F -15.7 °F -9.4 °F 52% 30.59 in 10.0 mi NW 20.7 mph 28.8 mph N/A   Clear
9:55 AM 5.0 °F -13.0 °F -7.6 °F 56% 30.60 in 10.0 mi NW 15.0 mph 26.5 mph N/A   Clear
10:15 AM 6.8 °F -11.8 °F -7.6 °F 52% 30.60 in 10.0 mi NW 17.3 mph 25.3 mph N/A   Clear
10:35 AM 6.8 °F -10.7 °F -7.6 °F 52% 30.59 in 10.0 mi NW 15.0 mph 23.0 mph N/A   Clear
10:55 AM 6.8 °F -11.3 °F -7.6 °F 52% 30.58 in 10.0 mi WNW 16.1 mph - N/A   Clear
11:15 AM 6.8 °F -8.6 °F -7.6 °F 52% 30.57 in 10.0 mi WNW 11.5 mph 20.7 mph N/A   Clear
11:35 AM 6.8 °F -11.3 °F -5.8 °F 56% 30.57 in 10.0 mi WNW 16.1 mph 21.9 mph N/A   Clear
11:55 AM 6.8 °F -10.0 °F -5.8 °F 56% 30.56 in 10.0 mi WNW 13.8 mph 24.2 mph N/A   Clear
12:15 PM 8.6 °F -8.9 °F -4.0 °F 57% 30.55 in 10.0 mi WNW 16.1 mph 24.2 mph N/A   Clear
12:35 PM 8.6 °F -11.4 °F -4.0 °F 57% 30.55 in 10.0 mi WNW 21.9 mph - N/A   Clear
12:55 PM 8.6 °F -10.5 °F -5.8 °F 52% 30.54 in 10.0 mi West 19.6 mph 23.0 mph N/A   Clear
1:15 PM 10.4 °F -8.6 °F -4.0 °F 52% 30.54 in 10.0 mi WNW 20.7 mph 27.6 mph N/A   Clear
1:35 PM 10.4 °F -7.2 °F -4.0 °F 52% 30.54 in 10.0 mi West 17.3 mph 25.3 mph N/A   Clear
1:55 PM 10.4 °F -6.6 °F -5.8 °F 48% 30.54 in 10.0 mi WNW 16.1 mph 21.9 mph N/A   Clear
2:15 PM 10.4 °F -6.6 °F -4.0 °F 52% 30.54 in 10.0 mi WNW 16.1 mph 20.7 mph N/A   Clear
2:35 PM 10.4 °F -8.2 °F -5.8 °F 48% 30.54 in 10.0 mi WNW 19.6 mph 26.5 mph N/A   Clear
2:55 PM 10.4 °F -7.2 °F -7.6 °F 44% 30.55 in 10.0 mi West 17.3 mph 20.7 mph N/A   Clear
3:15 PM 10.4 °F -6.6 °F -5.8 °F 48% 30.55 in 10.0 mi West 16.1 mph 21.9 mph N/A   Clear
3:35 PM 10.4 °F -7.2 °F -4.0 °F 52% 30.55 in 10.0 mi WNW 17.3 mph 23.0 mph N/A   Clear
3:55 PM 10.4 °F -5.4 °F -5.8 °F 48% 30.54 in 10.0 mi West 13.8 mph 20.7 mph N/A   Clear
4:15 PM 10.4 °F -7.2 °F -5.8 °F 48% 30.54 in 10.0 mi West 17.3 mph - N/A   Clear
4:35 PM 10.4 °F -6.6 °F -7.6 °F 44% 30.54 in 10.0 mi WNW 16.1 mph 20.7 mph N/A   Clear
4:55 PM 10.4 °F -4.8 °F -5.8 °F 48% 30.54 in 10.0 mi WNW 12.7 mph 19.6 mph N/A   Clear
5:15 PM 10.4 °F -4.8 °F -7.6 °F 44% 30.55 in 10.0 mi West 12.7 mph - N/A   Clear
5:35 PM 10.4 °F -7.2 °F -5.8 °F 48% 30.55 in 10.0 mi WNW 17.3 mph - N/A   Clear
5:55 PM 8.6 °F -6.3 °F -5.8 °F 52% 30.56 in 10.0 mi West 11.5 mph - N/A   Clear
6:15 PM 8.6 °F -4.7 °F -5.8 °F 52% 30.56 in 10.0 mi West 9.2 mph - N/A   Clear
6:35 PM 8.6 °F -4.7 °F -4.0 °F 57% 30.57 in 10.0 mi West 9.2 mph - N/A   Clear
6:55 PM 8.6 °F -5.5 °F -4.0 °F 57% 30.58 in 10.0 mi West 10.4 mph - N/A   Clear
7:15 PM 8.6 °F -6.3 °F -4.0 °F 57% 30.58 in 10.0 mi WNW 11.5 mph - N/A   Clear
7:35 PM 8.6 °F -6.3 °F -4.0 °F 57% 30.59 in 10.0 mi WNW 11.5 mph - N/A   Clear
7:55 PM 8.6 °F -8.3 °F -5.8 °F 52% 30.60 in 10.0 mi NW 15.0 mph - N/A   Clear
8:15 PM 8.6 °F -9.5 °F -7.6 °F 48% 30.61 in 10.0 mi WNW 17.3 mph 23.0 mph N/A   Clear
8:35 PM 8.6 °F -8.3 °F -7.6 °F 48% 30.61 in 10.0 mi WNW 15.0 mph 25.3 mph N/A   Clear
8:55 PM 6.8 °F -12.4 °F -7.6 °F 52% 30.61 in 10.0 mi NW 18.4 mph 24.2 mph N/A   Clear
9:15 PM 6.8 °F -9.3 °F -7.6 °F 52% 30.62 in 10.0 mi WNW 12.7 mph 23.0 mph N/A   Clear
9:35 PM 6.8 °F -9.3 °F -7.6 °F 52% 30.62 in 10.0 mi WNW 12.7 mph - N/A   Clear
9:55 PM 6.8 °F -9.3 °F -7.6 °F 52% 30.62 in 10.0 mi WNW 12.7 mph - N/A   Clear
10:15 PM 6.8 °F -7.8 °F -7.6 °F 52% 30.62 in 10.0 mi WNW 10.4 mph - N/A   Clear
10:35 PM 6.8 °F -5.9 °F -5.8 °F 56% 30.62 in 10.0 mi WNW 8.1 mph - N/A   Clear
10:55 PM 6.8 °F -4.8 °F -5.8 °F 56% 30.62 in 10.0 mi West 6.9 mph - N/A   Clear
11:15 PM 6.8 °F -5.9 °F -5.8 °F 56% 30.62 in 10.0 mi West 8.1 mph - N/A   Clear
11:35 PM 6.8 °F -3.5 °F -5.8 °F 56% 30.62 in 10.0 mi West 5.8 mph - N/A   Clear
11:55 PM 6.8 °F -4.8 °F -4.0 °F 61% 30.60 in 10.0 mi West 6.9 mph - N/A   Clear